Regional Weather Roundup
Issued by NWS

Home | Current Version | Previous Version | Graphics & Text | Print | Product List | Glossary On
Versions: 1 2 3 4 5 6 7 8 9 10 11 12 13 14 15 16 17 18 19 20 21 22 23 24 25 26 27 28 29 30 31 32 33 34 35 36 37 38 39 40 41 42 43 44 45 46 47 48 49 50
000
ASUS43 KIND 022059
RWRIN

WEATHER ROUNDUP FOR INDIANA
NATIONAL WEATHER SERVICE INDIANAPOLIS IN
500 PM EDT WED SEP 02 2015

NOTE: "FAIR" INDICATES FEW OR NO CLOUDS BELOW 12,000 FEET WITH NO
SIGNIFICANT WEATHER AND/OR OBSTRUCTIONS TO VISIBILITY.

* - STATION DOES NOT REPORT WEATHER SUCH AS PRECIPITATION OR FOG.

+ - STATION NOT QUALITY CONTROLLED BY THE NATIONAL WEATHER SERVICE.
    USE DATA WITH CAUTION...ESPECIALLY DEWPOINT AND RELATIVE
    HUMIDITY OBSERVATIONS.

INZ001>003-010>013-019-020-022200-
NORTHWEST INDIANA

CITY           SKY/WX    TMP DP  RH WIND       PRES   REMARKS
GARY /AIRPORT/ PTSUNNY   91  64  40 W15       29.99F

$$

LMZ046-743>745-022200-
SOUTHERN LAKE MICHIGAN

STATION/POSITION TIME  TEMP    WIND        PRES    WAVE
                       AIR SEA DIR/SP/G            HT
                 (UTC) (F)     (DEG/KT/KT) (MB)    (FT)
BURNS HARBOR     2000   87     210/ 10/ 17 1016.3F
MICHIGAN CITY    2000   84     340/  4/  5   N/A
5NW MICH CITY    2000   83 77   50/  4/  4   N/A     0

$$

INZ004-005-014>016-021>024-022200-
NORTH CENTRAL INDIANA

CITY           SKY/WX    TMP DP  RH WIND       PRES   REMARKS
ELKHART        PTSUNNY   84  73  70 CALM      30.01F
GOSHEN         FAIR      88  70  55 W12       30.00F
SOUTH BEND     NOT AVBL

$$

INZ006>009-017-018-025>027-022200-
NORTHEAST INDIANA

CITY           SKY/WX    TMP DP  RH WIND       PRES   REMARKS
ANGOLA *+      MOSUNNY   90  72  55 W6        30.01F HX  96
FORT WAYNE     NOT AVBL

$$

INZ028-029-035-036-043>045-051>053-022200-
WEST CENTRAL INDIANA

CITY           SKY/WX    TMP DP  RH WIND       PRES   REMARKS
GREENCASTLE +  FAIR      88  63  42 CALM      30.05F
LAFAYETTE      NOT AVBL
TERRE HAUTE    FAIR      89  67  47 SW6       30.03F

$$

INZ030>032-037>040-046>048-054>057-064-065-022200-
CENTRAL INDIANA

CITY           SKY/WX    TMP DP  RH WIND       PRES   REMARKS
COLUMBUS       MOSUNNY   84  64  51 W9        30.04F
GREENWOOD *+   FAIR      88  64  45 SW8       30.05F
INDIANAPOLIS   NOT AVBL
-EAGLE CREEK   FAIR      88  66  48 VRB6      30.03F
SHELBYVILLE    FAIR      90  67  46 SW10      30.03F

$$

INZ033-034-041-042-049-050-058-059-022200-
EAST CENTRAL INDIANA

CITY           SKY/WX    TMP DP  RH WIND       PRES   REMARKS
MUNCIE         FAIR      86  68  54 W12       30.03F

$$

INZ060-061-067>069-081>083-085>088-022200-
SOUTHWEST INDIANA

CITY           SKY/WX    TMP DP  RH WIND       PRES   REMARKS
EVANSVILLE     NOT AVBL

$$

INZ062-063-066-070>080-084-089>092-022200-
SOUTH CENTRAL AND SOUTHEAST INDIANA

CITY           SKY/WX    TMP DP  RH WIND       PRES   REMARKS
BLOOMINGTON    FAIR      88  68  51 CALM      30.05F
SEYMOUR +      FAIR      93  66  40 CALM      30.03F HX  96

$$




USA.gov is the U.S. government's official web portal to all federal, state and local government web resources and services.